Terminal Aerodrome Forecast
Issued by NWS Portland, ME

Home | Current Version | Previous Version | Text Only | Print | Product List | Glossary On
Versions: 1 2 3 4 5 6 7 8 9 10 11 12 13 14 15 16 17 18 19 20 21 22 23 24 25 26 27
831
FTUS41 KGYX 201120
TAFPWM
TAF
KPWM 201120Z 2012/2112 00000KT P6SM FEW035 FEW200
     FM201400 03004KT P6SM SCT035 BKN250
     FM202000 14004KT P6SM SCT025
     FM210300 00000KT P6SM OVC100
     FM210600 21002KT P6SM BKN050=

USA.gov is the U.S. government's official web portal to all federal, state and local government web resources and services.